| time (UTC) | temp F | wind direction | speed knots | gust knots | rain 1hr in | rain 24hr in | rain mn in | humidity % | barometer mb |
| 20260510030958 | 59 | 0 | 0.0 | 0.0 | 0.00 | 0.00 | 0.00 | 87 | 1012.9 |
| 20260510025954 | 60 | 0 | 0.0 | 0.0 | 0.00 | 0.00 | 0.00 | 86 | 1013.0 |
| 20260510023958 | 60 | 0 | 0.0 | 0.0 | 0.00 | 0.00 | 0.00 | 84 | 1013.1 |
| 20260510022954 | 60 | 0 | 0.0 | 0.0 | 0.00 | 0.00 | 0.00 | 84 | 1013.1 |
| 20260510021958 | 60 | 0 | 0.0 | 0.0 | 0.00 | 0.00 | 0.00 | 84 | 1013.1 |
| 20260510020954 | 60 | 0 | 0.0 | 0.0 | 0.00 | 0.00 | 0.00 | 84 | 1012.9 |
| 20260510015954 | 60 | 0 | 0.0 | 0.0 | 0.00 | 0.00 | 0.00 | 83 | 1012.8 |
| 20260510014955 | 60 | 0 | 0.0 | 0.0 | 0.00 | 0.00 | 0.00 | 82 | 1012.8 |
| 20260510013954 | 60 | 0 | 0.0 | 0.0 | 0.00 | 0.00 | 0.00 | 81 | 1012.8 |
| 20260510012954 | 60 | 0 | 0.0 | 0.0 | 0.00 | 0.00 | 0.00 | 82 | 1012.9 |
| 20260510010954 | 61 | 0 | 0.0 | 0.0 | 0.00 | 0.00 | 0.00 | 79 | 1013.1 |
| 20260510005954 | 61 | 0 | 0.0 | 0.0 | 0.00 | 0.00 | 0.00 | 80 | 1013.3 |
| 20260510003954 | 60 | 0 | 0.0 | 0.0 | 0.00 | 0.00 | 0.00 | 81 | 1013.6 |
| 20260510002956 | 60 | 0 | 0.0 | 0.0 | 0.00 | 0.00 | 0.00 | 82 | 1013.9 |
| 20260510001955 | 60 | 0 | 0.0 | 0.0 | 0.00 | 0.00 | 0.00 | 82 | 1014.1 |
| 20260509235955 | 60 | 0 | 0.0 | 0.0 | 0.00 | 0.00 | 0.00 | 81 | 1014.4 |
| 20260509233954 | 60 | 0 | 0.0 | 0.0 | 0.00 | 0.00 | 0.00 | 80 | 1014.3 |
| 20260509233007 | 60 | 0 | 0.0 | 0.0 | 0.00 | 0.00 | 0.00 | 80 | 1014.3 |
| 20260509231955 | 59 | 0 | 0.0 | 0.0 | 0.00 | 0.00 | 0.00 | 82 | 1014.5 |
| 20260509230954 | 59 | 0 | 0.0 | 0.0 | 0.00 | 0.00 | 0.00 | 84 | 1014.6 |
| 20260509224954 | 60 | 0 | 0.0 | 0.0 | 0.00 | 0.00 | 0.00 | 81 | 1014.4 |
| 20260509224004 | 60 | 0 | 0.0 | 0.0 | 0.00 | 0.00 | 0.00 | 80 | 1014.1 |
| 20260509222958 | 60 | 0 | 0.0 | 0.0 | 0.00 | 0.00 | 0.00 | 80 | 1013.7 |
| 20260509220954 | 60 | 0 | 0.0 | 0.0 | 0.00 | 0.00 | 0.00 | 80 | 1014.0 |
| 20260509215958 | 60 | 0 | 0.0 | 0.0 | 0.00 | 0.00 | 0.00 | 80 | 1013.9 |
| 20260509214958 | 61 | 0 | 0.0 | 0.0 | 0.00 | 0.00 | 0.00 | 79 | 1014.1 |
| 20260509211954 | 61 | 0 | 0.0 | 0.0 | 0.00 | 0.00 | 0.00 | 79 | 1014.7 |
| 20260509210958 | 61 | 0 | 0.0 | 0.0 | 0.00 | 0.00 | 0.00 | 79 | 1014.8 |
| 20260509205955 | 62 | 0 | 0.0 | 0.0 | 0.00 | 0.00 | 0.00 | 77 | 1014.7 |
| 20260509203955 | 62 | 0 | 0.0 | 0.0 | 0.00 | 0.00 | 0.00 | 79 | 1014.6 |
| 20260509202954 | 62 | 0 | 0.0 | 0.0 | 0.00 | 0.00 | 0.00 | 79 | 1014.5 |
| 20260509200954 | 63 | 0 | 0.0 | 0.0 | 0.00 | 0.00 | 0.00 | 77 | 1014.4 |
| 20260509195954 | 63 | 0 | 0.0 | 0.0 | 0.00 | 0.00 | 0.00 | 78 | 1014.2 |
| 20260509194957 | 64 | 0 | 0.0 | 0.0 | 0.00 | 0.00 | 0.00 | 77 | 1014.1 |
| 20260509193955 | 64 | 0 | 0.0 | 0.0 | 0.00 | 0.00 | 0.00 | 76 | 1014.2 |
| 20260509192956 | 64 | 0 | 0.0 | 0.0 | 0.00 | 0.00 | 0.00 | 77 | 1014.1 |
| 20260509191955 | 64 | 0 | 0.0 | 0.0 | 0.00 | 0.00 | 0.00 | 76 | 1014.0 |
| 20260509190000 | 65 | 0 | 0.0 | 0.0 | 0.00 | 0.00 | 0.00 | 76 | 1013.7 |
| 20260509184955 | 66 | 0 | 0.0 | 0.0 | 0.00 | 0.00 | 0.00 | 75 | 1013.6 |
| 20260509183958 | 66 | 0 | 0.0 | 0.0 | 0.00 | 0.00 | 0.00 | 75 | 1013.5 |
| 20260509182955 | 67 | 0 | 0.0 | 0.0 | 0.00 | 0.00 | 0.00 | 74 | 1013.4 |
| 20260509181956 | 67 | 0 | 0.0 | 0.0 | 0.00 | 0.00 | 0.00 | 72 | 1013.4 |
| 20260509180955 | 67 | 0 | 0.0 | 0.0 | 0.00 | 0.00 | 0.00 | 72 | 1013.4 |
| 20260509175955 | 67 | 0 | 0.0 | 0.0 | 0.00 | 0.00 | 0.00 | 72 | 1013.4 |
| 20260509174954 | 68 | 0 | 0.0 | 0.0 | 0.00 | 0.00 | 0.00 | 71 | 1013.3 |
| 20260509173955 | 69 | 0 | 0.0 | 0.0 | 0.00 | 0.00 | 0.00 | 69 | 1013.3 |
| 20260509171955 | 69 | 0 | 0.0 | 0.0 | 0.00 | 0.00 | 0.00 | 68 | 1013.1 |
| 20260509165954 | 69 | 0 | 0.0 | 0.0 | 0.00 | 0.00 | 0.00 | 64 | 1013.3 |
| 20260509164955 | 70 | 0 | 0.0 | 0.0 | 0.00 | 0.00 | 0.00 | 63 | 1013.4 |
| 20260509163955 | 70 | 0 | 0.0 | 0.0 | 0.00 | 0.00 | 0.00 | 64 | 1013.5 |
| 20260509162955 | 70 | 0 | 0.0 | 0.0 | 0.00 | 0.00 | 0.00 | 63 | 1013.6 |
| 20260509161955 | 70 | 239 | 0.0 | 0.9 | 0.00 | 0.00 | 0.00 | 59 | 1013.8 |
| 20260509161000 | 71 | 224 | 0.0 | 0.9 | 0.00 | 0.00 | 0.00 | 59 | 1014.1 |
| 20260509153955 | 72 | 208 | 0.0 | 4.3 | 0.00 | 0.00 | 0.00 | 59 | 1014.3 |
| 20260509152955 | 72 | 158 | 0.9 | 2.6 | 0.00 | 0.00 | 0.00 | 58 | 1014.4 |
| 20260509151957 | 71 | 240 | 0.9 | 7.8 | 0.00 | 0.00 | 0.00 | 59 | 1014.4 |
| 20260509150955 | 72 | 193 | 0.9 | 7.8 | 0.00 | 0.00 | 0.00 | 59 | 1014.4 |
| 20260509150001 | 71 | 188 | 1.7 | 5.2 | 0.00 | 0.00 | 0.00 | 60 | 1014.5 |
| 20260509144955 | 72 | 167 | 0.9 | 1.7 | 0.00 | 0.00 | 0.00 | 58 | 1014.7 |
| 20260509142956 | 72 | 240 | 1.7 | 7.8 | 0.00 | 0.00 | 0.00 | 60 | 1014.8 |
| 20260509141955 | 72 | 229 | 2.6 | 8.7 | 0.00 | 0.00 | 0.00 | 59 | 1014.8 |
| 20260509140955 | 72 | 226 | 0.0 | 1.7 | 0.00 | 0.00 | 0.00 | 59 | 1014.9 |
| 20260509133956 | 73 | 231 | 0.9 | 5.2 | 0.00 | 0.00 | 0.00 | 59 | 1015.2 |
| 20260509133005 | 72 | 252 | 0.0 | 0.9 | 0.00 | 0.00 | 0.00 | 61 | 1015.2 |
| 20260509131955 | 73 | 198 | 1.7 | 3.5 | 0.00 | 0.00 | 0.00 | 60 | 1015.3 |
| 20260509130955 | 72 | 171 | 0.9 | 7.0 | 0.00 | 0.00 | 0.00 | 61 | 1015.5 |
| 20260509125955 | 72 | 162 | 1.7 | 4.3 | 0.00 | 0.00 | 0.00 | 61 | 1015.6 |
| 20260509123955 | 72 | 213 | 0.9 | 4.3 | 0.00 | 0.02 | 0.00 | 63 | 1015.7 |
| 20260509122956 | 71 | 234 | 0.0 | 0.9 | 0.00 | 0.02 | 0.00 | 63 | 1015.8 |
| 20260509121957 | 71 | 148 | 1.7 | 1.7 | 0.00 | 0.02 | 0.00 | 64 | 1015.9 |
| 20260509120955 | 71 | 232 | 1.7 | 5.2 | 0.00 | 0.02 | 0.00 | 65 | 1015.9 |
| 20260509115955 | 70 | 230 | 1.7 | 9.6 | 0.00 | 0.02 | 0.00 | 66 | 1015.9 |
| 20260509114956 | 70 | 244 | 2.6 | 7.0 | 0.00 | 0.02 | 0.00 | 65 | 1016.0 |
| 20260509113956 | 70 | 240 | 6.1 | 11.3 | 0.00 | 0.02 | 0.00 | 66 | 1016.1 |
| 20260509112956 | 70 | 237 | 3.5 | 10.4 | 0.00 | 0.02 | 0.00 | 65 | 1016.2 |
| 20260509111955 | 70 | 233 | 4.3 | 8.7 | 0.00 | 0.02 | 0.00 | 65 | 1016.3 |
| 20260509110955 | 70 | 242 | 5.2 | 10.4 | 0.00 | 0.02 | 0.00 | 65 | 1016.3 |
| 20260509104955 | 70 | 235 | 3.5 | 12.2 | 0.00 | 0.02 | 0.00 | 66 | 1016.2 |
| 20260509103955 | 71 | 203 | 4.3 | 7.8 | 0.00 | 0.02 | 0.00 | 65 | 1016.1 |
| 20260509101956 | 71 | 224 | 3.5 | 6.1 | 0.00 | 0.02 | 0.00 | 65 | 1016.1 |
| 20260509100956 | 70 | 238 | 4.3 | 9.6 | 0.00 | 0.02 | 0.00 | 65 | 1016.1 |
| 20260509095955 | 71 | 197 | 2.6 | 7.0 | 0.00 | 0.02 | 0.00 | 63 | 1016.2 |
| 20260509094957 | 71 | 225 | 3.5 | 6.1 | 0.00 | 0.02 | 0.00 | 63 | 1016.2 |
| 20260509093955 | 71 | 189 | 1.7 | 7.0 | 0.00 | 0.02 | 0.00 | 63 | 1016.2 |
| 20260509093001 | 71 | 233 | 1.7 | 0.9 | 0.00 | 0.02 | 0.00 | 63 | 1016.2 |
| 20260509091956 | 71 | 235 | 0.9 | 4.3 | 0.00 | 0.02 | 0.00 | 63 | 1016.3 |
| 20260509090955 | 71 | 190 | 1.7 | 5.2 | 0.00 | 0.02 | 0.00 | 62 | 1016.4 |
| 20260509085955 | 71 | 242 | 0.0 | 0.9 | 0.00 | 0.02 | 0.00 | 63 | 1016.4 |
| 20260509084956 | 70 | 228 | 0.0 | 0.9 | 0.00 | 0.02 | 0.00 | 62 | 1016.4 |
| 20260509083956 | 71 | 205 | 1.7 | 3.5 | 0.00 | 0.02 | 0.00 | 62 | 1016.5 |
| 20260509082956 | 71 | 228 | 1.7 | 2.6 | 0.00 | 0.02 | 0.00 | 61 | 1016.4 |
| 20260509080959 | 71 | 161 | 0.9 | 4.3 | 0.00 | 0.02 | 0.00 | 63 | 1016.4 |
| 20260509071956 | 65 | 0 | 0.0 | 0.0 | 0.00 | 0.02 | 0.00 | 72 | 1016.6 |
| 20260509070955 | 64 | 0 | 0.0 | 0.0 | 0.00 | 0.02 | 0.00 | 74 | 1016.7 |
| 20260509065956 | 63 | 0 | 0.0 | 0.0 | 0.00 | 0.02 | 0.00 | 76 | 1016.6 |
| 20260509062956 | 60 | 0 | 0.0 | 0.0 | 0.00 | 0.02 | 0.00 | 79 | 1016.6 |
| 20260509062006 | 59 | 67 | 0.0 | 0.9 | 0.00 | 0.02 | 0.00 | 81 | 1016.7 |
| 20260509060955 | 58 | 0 | 0.0 | 0.0 | 0.00 | 0.02 | 0.00 | 82 | 1016.8 |
| 20260509054955 | 57 | 0 | 0.0 | 0.0 | 0.00 | 0.02 | 0.00 | 84 | 1016.8 |
| 20260509053955 | 57 | 0 | 0.0 | 0.0 | 0.00 | 0.02 | 0.00 | 85 | 1016.7 |
| 20260509052956 | 56 | 0 | 0.0 | 0.0 | 0.00 | 0.02 | 0.00 | 86 | 1016.6 |
| 20260509051956 | 55 | 0 | 0.0 | 0.0 | 0.00 | 0.02 | 0.00 | 89 | 1016.6 |
| 20260509050956 | 54 | 0 | 0.0 | 0.0 | 0.00 | 0.02 | 0.00 | 89 | 1016.6 |
| 20260509045956 | 54 | 0 | 0.0 | 0.0 | 0.00 | 0.02 | 0.00 | 89 | 1016.5 |
| 20260509044957 | 55 | 0 | 0.0 | 0.0 | 0.00 | 0.02 | 0.00 | 88 | 1016.4 |
| 20260509043956 | 54 | 0 | 0.0 | 0.0 | 0.00 | 0.02 | 0.00 | 88 | 1016.4 |
| 20260509042955 | 55 | 0 | 0.0 | 0.0 | 0.00 | 0.02 | 0.00 | 87 | 1016.4 |
| 20260509041955 | 55 | 0 | 0.0 | 0.0 | 0.00 | 0.02 | 0.00 | 87 | 1016.3 |
| 20260509035956 | 55 | 0 | 0.0 | 0.0 | 0.00 | 0.02 | 0.00 | 89 | 1016.3 |
| 20260509034956 | 54 | 0 | 0.0 | 0.0 | 0.00 | 0.02 | 0.00 | 90 | 1016.3 |
| 20260509033959 | 54 | 0 | 0.0 | 0.0 | 0.00 | 0.02 | 0.00 | 90 | 1016.3 |
| 20260509032955 | 54 | 0 | 0.0 | 0.0 | 0.00 | 0.02 | 0.00 | 90 | 1016.1 |
| 20260509031956 | 54 | 0 | 0.0 | 0.0 | 0.00 | 0.02 | 0.00 | 90 | 1016.0 |